Regional Weather Roundup
Issued by NWS Sioux Falls, SD

Home | Current Version | Previous Version | Text Only | Print | Product List | Glossary Off
Versions: 1 2 3 4 5 6 7 8 9 10 11 12 13 14 15 16 17 18 19 20 21 22 23 24 25 26 27 28 29 30 31 32 33 34 35 36 37 38 39 40 41 42 43 44 45 46 47 48 49 50

000
ASUS43 KFSD 261002
RWRFSD

WEATHER ROUNDUP FOR SE SOUTH DAKOTA/SW MINNESOTA/NW IOWA
NATIONAL WEATHER SERVICE SIOUX FALLS SD
500 AM CDT TUE JUL 26 2016

NOTE: "FAIR" INDICATES FEW OR NO CLOUDS BELOW 12,000 FEET WITH NO
SIGNIFICANT WEATHER AND OR OBSTRUCTIONS TO VISIBILITY.


SDZ038>040-050-052>070-261100-
SOUTHEAST SOUTH DAKOTA

CITY           SKY/WX    TMP DP  RH WIND       PRES   REMARKS
BROOKINGS      CLEAR     67  63  87 S9        30.05S
CHAMBERLAIN    CLEAR     73  64  73 S9        30.01F
HURON          CLEAR     65  60  84 SE8       29.99F
MADISON        FAIR      64  64 100 S9        30.06F
MITCHELL       CLEAR     64  61  90 S6        30.03S
SIOUX FALLS    CLEAR     70  62  76 SW8       30.06F
WINNER         FAIR      74  60  61 S20       30.02F
YANKTON        CLEAR     66  61  82 SE6       30.05F
$$

MNZ071-072-080-081-089-090-097-098-261100-
SOUTHWEST MINNESOTA

CITY           SKY/WX    TMP DP  RH WIND       PRES   REMARKS
FAIRMONT       CLEAR     64  59  82 S5        30.06F
JACKSON        CLEAR     68  61  77 SW7       30.09S
LUVERNE        CLEAR     59  57  94 S3        30.09S
MARSHALL       CLEAR     73  64  73 SW13G20   30.01F
MONTEVIDEO     CLEAR     66  63  88 SW7       30.02F
REDWOOD FALLS  CLEAR     68  62  81 SW9       30.03S
TRACY          CLEAR     70  65  82 SW16      30.04F
WINDOM         CLEAR     68  63  83 SW6       30.07F
WORTHINGTON    CLEAR     69  64  84 SW10      30.09S
$$

IAZ001>003-012>014-020>022-031-032-NEZ013-014-SDZ071-261100-
NORTHWEST IOWA

CITY           SKY/WX    TMP DP  RH WIND       PRES   REMARKS
CHEROKEE       CLEAR     62  62  99 CALM      30.09S
DENISON        CLEAR     61  61 100 CALM      30.08S
ESTHERVILLE    CLEAR     64  62  93 SW6       30.08F
LE MARS        CLEAR     63  63 100 CALM      30.09S
SHELDON        CLEAR     63  63 100 S3        30.08S
SIOUX CITY     CLEAR     65  62  90 E6        30.08S
SPENCER        CLEAR     62  60  93 SW5       30.09S
STORM LAKE     CLEAR     64  63  94 SW5       30.10S
$$

ABBREVIATIONS USED IN REMARKS
   TC - TEMPERATURE IN CELSIUS
  WCI - WIND CHILL INDEX
   HX - HEAT INDEX
  VSB - VISIBILITY




USA.gov is the U.S. government's official web portal to all federal, state and local government web resources and services.